Location: City of Moscow
(46.7306°N, 116.9989°W)
Time: 14:53:17
(UTC+00:00)

CUBEBUG 2 - Pass Details

Date: 23 April 2026
Orbit: 546 x 628 km, 97.9° (Epoch: 15 May)

Event Time Altitude Azimuth Distance (km) Brightness Sun altitude
Rises 09:57:59 0° 17° (NNE) 2,842 ? -23.7°
Reaches altitude 10° 10:00:14 10° 22° (NNE) 1,922 ? -23.5°
Maximum altitude 10:04:19 54° 100° (E) 706 ? -23.1°
Enters shadow 10:04:51 50° 131° (SE) 742 ? -23.0°
